Regional Weather Roundup
Issued by NWS

Home | Current Version | Previous Version | Text Only | Print | Product List | Glossary On
Versions: 1 2 3 4 5 6 7 8 9 10 11 12 13 14 15 16 17 18 19 20 21 22 23 24 25 26 27 28 29 30 31 32 33 34 35 36 37 38 39 40 41 42 43 44 45 46 47 48 49 50
000
ASUS43 KTOP 261459
RWRKS

WEATHER ROUNDUP FOR KANSAS
NATIONAL WEATHER SERVICE GOODLAND KS
1000 AM CDT WED JUL 26 2017

NOTE:  "FAIR" INDICATES FEW OR NO CLOUDS BELOW 12,000 FEET WITH NO
SIGNIFICANT WEATHER AND/OR OBSTRUCTIONS TO VISIBILITY.

KSZ001>006-013>018-027>032-041>047-261600-
NORTHWEST KANSAS

CITY           SKY/WX    TMP DP  RH WIND       PRES   REMARKS
GOODLAND       CLOUDY    70  66  87 NW21G28   30.06R
HAYS           CLOUDY    87  66  49 SW15      29.92S
HILL CITY      PTSUNNY   78  72  81 CALM      29.93R
RUSSELL        PTSUNNY   85  70  60 SE16      29.92F
$$

KSZ061>065-074>080-084>089-261600-
SOUTHWEST KANSAS

CITY           SKY/WX    TMP DP  RH WIND       PRES   REMARKS
DODGE CITY     CLOUDY    87  61  41 SW25G31   29.96F
ELKHART          N/A     77  53  43 W7          N/A
GARDEN CITY    CLOUDY    79  63  57 W13       30.01R
GREAT BEND     CLOUDY    87  67  51 S16       29.93R
LIBERAL        CLOUDY    84  62  47 W14       30.04R
$$

KSZ066>073-081>083-090>101-261600-
SOUTHEAST KANSAS

CITY           SKY/WX    TMP DP  RH WIND       PRES   REMARKS
CHANUTE        CLOUDY    85  73  67 S15       30.03S
COFFEYVILLE    CLOUDY    83  73  72 S10       30.04R
HUTCHINSON     CLOUDY    80  69  69 NE5       29.98R
MEDICINE LODGE   N/A     85  66  53 S12       29.96S
NEWTON         CLOUDY    81  70  69 SW8       30.02R THUNDER
PARSONS        CLOUDY    83  73  72 S7        30.05R
WICHITA INTL   CLOUDY    85  70  60 S16       29.97S
WICHITA JABRA  CLOUDY    84  69  60 S16G23    29.98S
WICHITA MCCONL CLOUDY    84  69  59 SW14G22   29.99R
WINFIELD       CLOUDY    85  70  60 S12       30.01S
$$

KSZ007>012-019>026-033>040-048>060-102>105-261600-
NORTHEAST KANSAS

CITY           SKY/WX    TMP DP  RH WIND       PRES   REMARKS
CONCORDIA      LGT RAIN  74  73  97 S12       29.93F
EMPORIA        LGT RAIN  77  72  84 NW6       30.03R
LAWRENCE       CLOUDY    79  76  90 NW5       30.05R
MANHATTAN      RAIN      77  75  93 S8        30.00F FOG
OLATHE IND     CLOUDY    80  74  81 S6        30.06R
OLATHE EXE     CLOUDY    78  75  90 S6        30.05R
SALINA         LGT RAIN  79  74  84 SE15      29.97F
TOPEKA BILLARD RAIN      77  76  96 W7        30.05S FOG
TOPEKA FORBES  LGT RAIN  77  74  90 NW6       30.05S FOG
$$




USA.gov is the U.S. government's official web portal to all federal, state and local government web resources and services.